#timestamp,LO_Frequency,Hit,StdDev 
1619474475.8,286025110.5,P
1619474495.6,286025110.8,P
1619474515.5,286025110.6,P
1619474535.3,286025114.5,Y
1619474555.1,286047004.0,P
1619474575.9,286047004.1,N
1619474595.7,286047001.4,N
1619474615.5,286047002.2,N
1619474635.4,286047004.4,N
1619474655.2,286047003.4,N
1619474675.1,286047005.3,N
1619474676.0,286047005.3,N
1619474695.8,286047005.2,N
1619474715.6,286047006.7,N
1619474735.5,286047007.3,N
1619474755.3,286047006.9,N
1619474775.1,286047006.9,N
1619474795.9,286047006.8,N
1619474815.7,286047007.9,N
1619474835.6,286047009.7,N
1619474855.4,286047013.9,N
1619474875.2,286047014.6,N
1619474895.1,286047014.6,N
1619474896.0,286047014.6,N
1619474915.8,286047017.2,N
1619474935.6,286047016.7,N
1619474955.5,286047018.7,N
1619474975.3,286047017.4,N
1619474995.1,286047020.4,N
1619475015.9,286047017.7,N
1619475035.7,286047019.1,N
1619475055.6,286047019.8,N
1619475075.4,286047018.9,N
1619475095.2,286047020.1,N
1619475115.1,286047019.2,Y
1619475116.0,286047019.2,P
1619475135.8,286047010.8,N
1619475155.6,286047009.9,N
1619475175.5,286047012.8,Y
1619475195.3,286047002.4,P
1619475215.2,286046999.7,N
1619475235.9,286047002.7,N
1619475255.7,286047001.6,N
1619475275.6,286047001.6,N
1619475295.4,286047001.3,N
1619475315.3,286047004.3,N
1619475335.1,286047003.6,N
1619475336.0,286047003.6,N
1619475355.8,286047003.6,N
1619475375.7,286047003.4,N
1619475395.5,286047003.5,N
1619475415.3,286047003.1,N
1619475435.2,286047003.0,N
1619475455.0,286047003.1,N
1619475455.9,286047003.1,N
1619475475.8,286047002.9,N
1619475495.6,286047006.0,N
1619475515.4,286047005.1,N
1619475535.3,286047008.8,Y
1619475555.1,286047005.8,P
1619475575.9,286047003.1,N
1619475595.7,286047003.0,N
1619475615.5,286047004.1,Y
1619475635.4,286047002.7,P
1619475655.2,286047002.7,P
1619475675.0,286047001.6,N
1619475675.9,286047001.6,N
1619475695.8,286047001.4,N
1619475715.6,286042648.1,Y
1619475735.5,286047000.2,P
1619475755.3,286047001.9,N
1619475775.1,286047004.0,P
1619475795.9,286047003.9,N
1619475815.7,286047004.3,Y
1619475835.5,286047000.9,P
1619475855.4,286047001.0,N
1619475875.2,286047001.1,N
1619475895.1,286047000.7,N
1619475896.0,286047000.7,N
1619475915.8,286047000.1,N
1619475935.6,286047001.9,N
1619475955.5,286047003.5,Y
1619475975.3,286047001.3,P
1619475995.1,286047004.3,P
1619476015.9,286047004.0,N
1619476035.7,286047003.9,N
1619476055.6,286047005.6,Y
1619476075.4,286047001.8,P
1619476095.2,286047001.8,P
1619476115.1,286047001.5,N
1619476116.0,286047001.5,N
1619476135.8,286047001.3,N
1619476155.7,286047004.1,Y
1619476175.5,286047002.3,P
1619476195.3,286047002.5,P
1619476215.2,286047001.5,P
1619476235.0,286047004.3,Y
1619476235.9,286047004.3,P
1619476255.8,286047002.3,N
1619476275.6,286047002.2,N
1619476295.4,286047001.7,N
1619476315.3,286047001.4,N
1619476335.1,286047001.4,N
1619476355.9,286047001.4,N
1619476375.7,286047003.9,Y
1619476395.5,286047001.4,P
1619476415.4,286047004.0,P
1619476435.2,286047003.3,N
1619476455.0,286047003.7,Y
1619476456.0,286047003.7,P
1619476475.8,286046999.7,N
1619476495.6,286047002.3,N
1619476515.5,286047001.7,N
1619476535.3,286047003.9,N
1619476555.1,286047003.6,N
1619476575.9,286047002.9,N
1619476595.7,286047005.6,Y
1619476615.6,286047003.4,P
1619476635.4,286047003.5,P
1619476655.2,286047007.6,P
1619476675.1,286047003.0,N
1619476676.0,286047003.0,N
1619476695.8,286047003.7,N
1619476715.6,286047005.6,Y
1619476735.5,286047000.1,P
1619476755.3,286047000.0,N
1619476775.2,286047000.1,N
1619476795.9,286047002.1,N
1619476815.7,286047000.5,N
1619476835.6,286047000.2,N
1619476855.4,286046999.9,N
1619476875.2,286047002.1,N
1619476895.1,286047001.8,N
1619476896.0,286047001.8,N
1619476915.8,286047003.5,N
1619476935.7,286047003.2,N
1619476955.5,286047003.3,N
1619476975.3,286047003.2,N
1619476995.2,286047003.7,N
1619477015.0,286047003.2,N
1619477015.9,286047003.2,N
1619477035.7,286047006.0,Y
1619477055.6,286047001.4,P
1619477075.4,286047001.6,P
1619477095.3,286047003.7,P
1619477115.1,286047004.0,Y
1619477135.8,286047000.9,P
1619477155.7,286047000.0,N
1619477175.5,286047000.6,N
1619477195.3,286047000.9,N
1619477215